Location: Carrières
(48.9495°N, 2.0407°E)
Time: 22:04:30
(UTC+00:00)

Transit 2A Rocket - Pass Details

Date: 01 May 2024
Orbit: 585 x 908 km, 66.7° (Epoch: 18 May)

Event Time Altitude Azimuth Distance (km) Brightness Sun altitude
Rises 18:59:06 0° 311° (NW) 3,384 10.1 0.5°
Reaches altitude 10° 19:02:22 10° 292° (WNW) 2,498 10.1 0.0°
Maximum altitude 19:05:54 17° 254° (WSW) 2,094 8.1 -0.5°
Drops below altitude 10° 19:09:31 10° 217° (SW) 2,566 7.9 -1.0°
Sets 19:12:57 0° 198° (SSW) 3,520 8.3 -1.5°
